Seward, AK

1:24 PM AKDT on June 26, 2017 (GMT -0800)
Seward

Weather History for PAWD - September, 2013

Change the Weather History Date:

Tuesday, September 24, 2013

  Actual Average Record
Temperature  
Mean Temperature 42 °F -  
Max Temperature 53 °F 52 °F 63 °F (1951)
Min Temperature 35 °F 40 °F 30 °F (1956)
Degree Days  
Heating Degree Days 24    
Moisture  
Dew Point 35 °F    
Average Humidity 74    
Maximum Humidity 93    
Minimum Humidity 55    
Precipitation  
Precipitation 0.01 in - - ()
Sea Level Pressure  
Sea Level Pressure 29.91 in    
Wind  
Wind Speed 9 mph (NNE)    
Max Wind Speed 22 mph    
Max Gust Speed 32 mph    
Visibility 10 miles    
Events Rain    
Averages and records for this station are not official NWS values.
T = Trace of Precipitation, MM = Missing Value Source: NWS Daily Summary

Daily Weather History Graph

Daily Weather History Graph

Search for Another Location

Airport or City:

Trip Planner

Search our weather history database for the weather conditions in past years. The results will help you decide how hot, cold, wet, or windy it might be!

Date:

Astronomy

Sep. 24, 2013 Rise Set
Actual Time 7:47 AM AKDT 7:49 PM AKDT
Civil Twilight 7:06 AM AKDT 8:31 PM AKDT
Nautical Twilight 6:16 AM AKDT 9:21 PM AKDT
Astronomical Twilight 5:22 AM AKDT 10:14 PM AKDT
Moon 9:52 PM AKDT (9/24) 2:33 PM AKDT (9/24)
Length of Visible Light 13h 25m
Length of Day
12h 02m
Waning Gibbous, 72% of the Moon is Illuminated
Sep 24
Waning Gibbous
Sep 26
Last Quarter
Oct 4
New
Oct 11
First Quarter
Oct 18
Full

Hourly Weather History & Observations

Time (AKDT) Temp. Windchill Dew Point Humidity Pressure Visibility Wind Dir Wind Speed Gust Speed Precip Events Conditions
12:53 AM 39.9 °F 32.1 °F 28.0 °F 63% 29.72 in 10.0 mi North 13.8 mph 26.5 mph N/A   Clear
1:53 AM 39.0 °F 29.6 °F 28.0 °F 65% 29.74 in 10.0 mi NNE 18.4 mph 24.2 mph N/A   Clear
2:53 AM 39.9 °F 31.8 °F 27.0 °F 60% 29.76 in 10.0 mi NNE 15.0 mph - N/A   Clear
3:53 AM 41.0 °F 33.1 °F 26.1 °F 55% 29.79 in 10.0 mi NNE 15.0 mph 26.5 mph N/A   Clear
4:53 AM 39.0 °F 31.0 °F 28.0 °F 65% 29.82 in 10.0 mi NNE 13.8 mph 21.9 mph N/A   Clear
5:53 AM 37.9 °F 30.5 °F 28.0 °F 68% 29.84 in 10.0 mi NNE 11.5 mph 21.9 mph N/A   Clear
6:53 AM 37.0 °F 28.5 °F 28.0 °F 70% 29.87 in 10.0 mi NNE 13.8 mph - N/A   Clear
7:53 AM 35.1 °F 25.2 °F 28.9 °F 78% 29.89 in 10.0 mi North 16.1 mph - N/A   Clear
8:53 AM 36.0 °F 27.1 °F 30.0 °F 79% 29.90 in 10.0 mi NNE 13.8 mph 19.6 mph N/A   Overcast
9:53 AM 37.9 °F 29.2 °F 30.0 °F 73% 29.92 in 10.0 mi North 15.0 mph 21.9 mph N/A   Overcast
10:53 AM 41.0 °F 36.4 °F 30.9 °F 67% 29.93 in 10.0 mi North 6.9 mph - N/A   Overcast
11:53 AM 43.0 °F 36.8 °F 30.9 °F 62% 29.94 in 10.0 mi North 11.5 mph - N/A   Overcast
12:53 PM 45.0 °F 41.2 °F 32.0 °F 60% 29.96 in 10.0 mi North 6.9 mph - N/A   Overcast
1:53 PM 46.9 °F - 33.1 °F 59% 29.96 in 10.0 mi Calm Calm - N/A   Overcast
2:53 PM 48.0 °F - 33.1 °F 56% 29.97 in 10.0 mi Calm Calm - N/A   Overcast
3:53 PM 48.0 °F - 33.1 °F 56% 29.98 in 10.0 mi Calm Calm - N/A   Overcast
4:53 PM 46.9 °F - 34.0 °F 61% 29.97 in 10.0 mi Calm Calm - N/A   Overcast
5:53 PM 48.0 °F - 37.0 °F 66% 29.96 in 10.0 mi Calm Calm - N/A   Overcast
6:53 PM 46.0 °F - 39.0 °F 76% 29.96 in 10.0 mi Calm Calm - N/A   Overcast
7:33 PM 44.6 °F - 39.2 °F 81% 29.96 in 10.0 mi Calm Calm - N/A   Overcast
7:49 PM 44.6 °F - 39.2 °F 81% 29.95 in 10.0 mi Calm Calm - N/A   Overcast
7:53 PM 45.0 °F - 39.0 °F 80% 29.95 in 10.0 mi Calm Calm - N/A   Overcast
8:35 PM 44.6 °F 43.1 °F 39.2 °F 81% 29.95 in 10.0 mi ENE 3.5 mph - N/A   Overcast
8:53 PM 44.1 °F - 39.9 °F 85% 29.95 in 10.0 mi Calm Calm - N/A   Overcast
9:19 PM 44.6 °F - 41.0 °F 87% 29.93 in 9.0 mi Calm Calm - 0.00 in Rain Light Rain
9:39 PM 44.6 °F - 42.8 °F 93% 29.93 in 4.0 mi Calm Calm - 0.00 in Rain Light Rain
9:48 PM 44.6 °F - 42.8 °F 93% 29.93 in 8.0 mi Calm Calm - 0.00 in Rain Light Rain
9:53 PM 44.1 °F - 42.1 °F 93% 29.93 in 7.0 mi Calm Calm - 0.01 in Rain Light Rain
10:09 PM 44.6 °F - 42.8 °F 93% 29.92 in 10.0 mi Calm Calm - 0.00 in   Overcast
10:53 PM 44.1 °F 42.5 °F 42.1 °F 93% 29.90 in 9.0 mi NE 3.5 mph - 0.00 in   Overcast
11:53 PM 52.0 °F - 46.0 °F 80% 29.88 in 10.0 mi SSW 21.9 mph 32.2 mph 0.00 in Rain Light Rain